Regional Weather Roundup
Issued by NWS

Home | Current Version | Previous Version | Graphics & Text | Print | Product List | Glossary On
Versions: 1 2 3 4 5 6 7 8 9 10 11 12 13 14 15 16 17 18 19 20 21 22 23 24 25 26 27
000
ASUS45 KBOU 170110
RWRCO

WEATHER ROUNDUP FOR COLORADO
NATIONAL WEATHER SERVICE DENVER/BOULDER CO
600 PM MST THU NOV 16 2017

NOTE: "FAIR" INDICATES FEW OR NO CLOUDS BELOW 12000 FEET WITH NO
SIGNIFICANT WEATHER AND/OR OBSTRUCTIONS TO VISIBILITY.

COZ001>005-013-030-031-170200-
...NORTHWEST COLORADO...

CITY           SKY/WX    TMP DP  RH WIND       PRES   REMARKS
CRAIG          FAIR      53  25  33 SW13      29.86F
HAYDEN         FAIR      51  25  36 SW5       29.90F
MEEKER         FAIR      52  25  35 S13       29.88F
RABBIT EARS PA CLOUDY    36  23  60 SW10G17   30.05F
STEAMBOAT SPGS FAIR      50  25  37 CALM      29.90F
WALDEN         FAIR      41  23  48 SW16G23   29.92F
$$

COZ006>008-011-170200-
...WEST CENTRAL VALLEYS...

CITY           SKY/WX    TMP DP  RH WIND       PRES   REMARKS
GRAND JUNCTION FAIR      50  23  34 NE8       29.90F
MONTROSE       CLOUDY    58  28  32 SE9       29.98F
EAGLE          CLOUDY    54  27  35 SW14      29.95F
RIFLE          FAIR      57  24  28 W14       29.91S
DELTA          FAIR      59  30  32 E6        29.95F
NUCLA          CLOUDY    57  23  26 SE7       30.03
$$

COZ017>023-064>068-170200-
...SOUTHWEST COLORADO...

CITY           SKY/WX    TMP DP  RH WIND       PRES   REMARKS
DURANGO        CLOUDY    51  22  31 CALM      30.11R
CORTEZ         CLOUDY    51  24  34 CALM      30.06R
PAGOSA SPRINGS CLOUDY    48  20  33 CALM      30.16R
TELLURIDE      CLOUDY    44  31  59 CALM      30.18S
WOLF CREEK PAS MOCLDY    30  19  64 S21G35    30.30F WCI  17
$$

COZ009-010-012-014-032>034-037-058>063-170200-
...CENTRAL COLORADO...

CITY           SKY/WX    TMP DP  RH WIND       PRES   REMARKS
ASPEN          CLOUDY    50  29  44 SE8       30.00F
BUENA VISTA    CLOUDY    47  30  51 W16G22    30.06R
COPPER MTN     MOCLDY    36  23  60 MISG      30.17R
BERTHOUD PASS  MOCLDY    30  19  64 W23G33    30.14R WCI  17
COTTONWOOD PAS FLURRIES  43  34  70 NW13G23   30.12R
GUNNISON       LGT RAIN  44  37  76 N8        30.09R
KREMMLING      FAIR      55  23  28 W15G25    29.96F
LEADVILLE      NOT AVBL
MONARCH PASS   LGT SNOW  32  28  86 W30G40    30.29S WCI  18
SALIDA         CLOUDY    52  33  49 W9        30.13R
SUNLIGHT       CLOUDY    34  25  69 SW20G35   30.12F WCI  22
WILKERSON PASS FAIR      36  18  48 SW17G30   30.15S
$$

COZ069>075-170200-
...SAN LUIS VALLEY/SANGRE DE CRISTO MOUNTAINS...

CITY           SKY/WX    TMP DP  RH WIND       PRES   REMARKS
ALAMOSA        FAIR      51  26  37 W21G29    30.09R
DEL NORTE      FAIR      49  25  38 SW10G18   30.10F
LA VETA PASS   FAIR      41  23  48 S18G39      N/A
SAGUACHE       CLOUDY    52  30  43 NW12G18   30.08F
$$

COZ035-036-038>040-170200-
...NORTHERN COLORADO FRONT RANGE...

CITY           SKY/WX    TMP DP  RH WIND       PRES   REMARKS
DENVER INTL AP MOCLDY    65  18  16 W13       29.79R
DMNS CITY PARK   N/A     65  14  14 SE7       29.78S
AURORA         MOCLDY    58  20  22 S7        29.82R
FRONT RANGE AP MOCLDY    59  19  21 VRB7      29.81R
ERIE MUNI ARPT FAIR      58  23  26 W5        29.83R
BOULDER MUN AP FAIR      64  23  20 SW16G25   29.77R
CENTENNIAL     MOCLDY    63  22  20 SW17      29.82R
BROOMFIELD     MOCLDY    63  18  17 W6        29.81R
FORT COLLINS   FAIR      62  27  26 SW18      29.75S
LONGMONT       FAIR      66  22  18 SW7       29.78F
$$

COZ041-046-047-076>085-087-088-170200-
...PIKES PEAK/PALMER DIVIDE AND SOUTHERN FOOTHILLS...

CITY           SKY/WX    TMP DP  RH WIND       PRES   REMARKS
COLO. SPRINGS  MOCLDY    64  21  19 W20G31    29.91R
A. F. ACADEMY  FAIR      61  18  19 W13G20    29.90R
SCHRIEVER AFB  FAIR      62  18  18 W17       29.89R
CHEYENNE MTN   FAIR      60  20  21 E9G38     29.86R
ELLICOTT         N/A    N/A N/A N/A SW9       29.88R
FALCON         FAIR      59  15  17 W16G32    29.92R
FORT CARSON    FAIR      65  22  19 W25G43    29.86R
LIMON          FAIR      62  19  19 W9        29.81R
MONUMENT HILL  FAIR      54  18  24 W14       29.93R
CANON CITY     FAIR      59  27  29 W10       29.89R
WALSENBURG     FAIR      64  27  24 SW31G43   29.91R
TRINIDAD       FAIR      65  27  23 W24G36    29.90F
$$

COZ042>045-048>051-090-091-170200-
...NORTHEAST COLORADO...

CITY           SKY/WX    TMP DP  RH WIND       PRES   REMARKS
GREELEY ARPT   FAIR      65  25  22 W17       29.77R
AKRON          FAIR      55  19  24 S7        29.73S
BURLINGTON     FAIR      58  30  34 S17G29    29.77S
WRAY           NOT AVBL
YUMA           FAIR      50  27  40 SE5       29.71F
STERLING       FAIR      50  28  43 SW6       29.69S
HOLYOKE        FAIR      52  32  46 SE8       29.71S
FORT MORGAN    FAIR      57  23  27 W3        29.75R
$$

COZ086-089-092>099-170200-
...SOUTHEAST COLORADO...

CITY           SKY/WX    TMP DP  RH WIND       PRES   REMARKS
PUEBLO         FAIR      53  24  32 W8        29.83R
LA JUNTA       FAIR      61  23  23 S10       29.79S
LAMAR          FAIR      63  25  23 S15       29.76S
SPRINGFIELD      N/A     50  29  44 SE3       29.84R
$$




USA.gov is the U.S. government's official web portal to all federal, state and local government web resources and services.